Left ArrowRight Arrow

31.84235, -102.49876

Hourly Observations for September 21, 2022

Temp ( °F °C ) Dew Point ( °F °C ) Humidity (%) Winds ( mph kmh ) Pressure ( in mb ) Visibility ( mi km ) Precip ( " mm )
12:53 am 00:53 Clear 77 25 60 15.6 56 56 SSW 9 15 29.93 1014 10 16 0.00 0.00
4:53 am 04:53 Clear 65 18.3 62 16.7 90 90 S 7 11 29.92 1013 10 16 0.00 0.00
5:53 am 05:53 Clear 67 19.4 62 16.7 84 84 SSE 8 13 29.93 1014 10 16 0.00 0.00
6:53 am 06:53 Clear 71 21.7 64 17.8 79 79 SSE 10 17 29.94 1014 10 16 0.00 0.00
7:53 am 07:53 Sunny 70 21.1 65 18.3 84 84 SE 8 13 29.96 1015 10 16 0.00 0.00
8:53 am 08:53 Sunny 73 22.8 67 19.4 81 81 SSE 9 15 29.98 1015 10 16 0.00 0.00
9:53 am 09:53 Sunny 76 24.4 67 19.4 74 74 S 12 19 29.98 1015 10 16 0.00 0.00
10:53 am 10:53 Sunny 80 26.7 67 19.4 64 64 S 15 24 29.98 1015 10 16 0.00 0.00
11:53 am 11:53 Sunny 84 28.9 66 18.9 55 55 S 16 26 29.97 1015 10 16 0.00 0.00
12:53 pm 12:53 Sunny 86 30 65 18.3 50 50 S 13 20 29.95 1014 10 16 0.00 0.00
1:53 pm 13:53 Sunny 87 30.6 62 16.7 43 43 SSE 14 22 29.93 1014 10 16 0.00 0.00
2:53 pm 14:53 Sunny 89 31.7 61 16.1 39 39 S 12 19 29.91 1013 10 16 0.00 0.00
3:53 pm 15:53 Mostly Sunny 88 31.1 60 15.6 39 39 SSE 10 17 29.89 1012 10 16 0.00 0.00
4:53 pm 16:53 Sunny 91 32.8 59 15 34 34 S 12 19 29.88 1012 10 16 0.00 0.00
5:53 pm 17:53 Mostly Sunny 90 32.2 57 13.9 33 33 S 14 22 29.88 1012 10 16 0.00 0.00
6:53 pm 18:53 Sunny 89 31.7 56 13.3 33 33 SE 14 22 29.87 1012 10 16 0.00 0.00
7:53 pm 19:53 Clear 86 30 56 13.3 36 36 S 8 13 29.88 1012 10 16 0.00 0.00
8:53 pm 20:53 Clear 82 27.8 56 13.3 41 41 SSE 7 11 29.90 1013 10 16 0.00 0.00
9:53 pm 21:53 Clear 81 27.2 56 13.3 42 42 SSE 9 15 29.93 1013 10 16 0.00 0.00
10:53 pm 22:53 Clear 80 26.7 58 14.4 47 47 S 10 17 29.93 1014 10 16 0.00 0.00
11:53 pm 23:53 Clear 78 25.6 58 14.4 50 50 S 9 15 29.93 1014 10 16 0.00 0.00

Powered by Vaisala Xweather